Hourly Data Report for September 23, 2017

All times are specified in Local Standard Time (LST). Add 1 hour to adjust for Daylight Saving Time where and when it is observed.

POINT LEPREAU CS
NEW BRUNSWICK

45°04'23.040" N
66°26'57.090" W
6.00 m
8104201
71699
WPE

Download Data

Hourly Data (September 2017)
Hourly Data Report for September 23, 2017
Temp Definition
°C
Dew Point Temp Definition
°C
Rel Hum Definition
%
Wind Dir Definition
10's deg

Wind Spd Definition
km/h
Visibility Definition
km
Stn Press Definition
kPa
Hmdx Definition


Wind Chill Definition


Weather Definition


TIME
00:00 15.4 10.5 72 5 8   101.73     LegendNANA
01:00 15.3 10.5 73 4 8   101.75     LegendNANA
02:00 14.7 10.7 77 2 5   101.72     LegendNANA
03:00 14.4 10.8 79 2 6   101.68     LegendNANA
04:00 13.9 10.7 81 2 7   101.64     LegendNANA
05:00 13.5 10.7 83 4 6   101.59     LegendNANA
06:00 13.5 11.1 85 3 6   101.57     LegendNANA
07:00 13.8 11.8 88 1 5   101.57     LegendNANA
08:00 15.5 12.6 83 12 3   101.57     LegendNANA
09:00 15.8 13.2 85 29 5   101.58     LegendNANA
10:00 16.4 15.3 93 17 9   101.57     LegendNANA
11:00 17.4 15.7 90 18 9   101.55     LegendNANA
12:00 19.3 16.5 84 21 9   101.55     LegendNANA
13:00 17.7 15.6 88 18 10   101.47     LegendNANA
14:00 16.5 15.1 92 15 7   101.44     LegendNANA
15:00 18.3 16.1 87 17 9   101.38     LegendNANA
16:00 18.0 16.2 90 23 12   101.35     LegendNANA
17:00 17.4 15.5 89 24 7   101.38     LegendNANA
18:00 15.7 14.7 94 29 5   101.37     LegendNANA
19:00 15.2 14.9 98 29 7   101.42     LegendNANA
20:00 15.3 15.1 99 30 7   101.45     LegendNANA
21:00 14.5 14.4 99 27 3   101.49     LegendNANA
22:00 13.5 13.2 98 7 2   101.53     LegendNANA
23:00 13.4 13.2 99 30 4   101.51     LegendNANA

Notes on Data Quality.

Legend

  • E = Estimated
  • M = Missing
  • NA = Not Available
  • ‡ = Partner data that is not subject to review by the National Climate Archives
Date modified: